Location: Blériot-Plage
(50.9575°N, 1.8224°E)
Time: 19:37:02
(UTC+00:00)

Cosmos 1833 - Pass Details

Date: 15 May 2026
Orbit: 833 x 865 km, 70.9° (Epoch: 7 June)

Event Time Altitude Azimuth Distance (km) Brightness Sun altitude
Exits shadow 21:44:10 13° 190° (S) 2,240 6.0 -14.8°
Maximum altitude 21:49:07 59° 113° (ESE) 966 4.2 -15.2°
Drops below altitude 10° 21:54:38 10° 36° (NE) 2,458 7.0 -15.6°
Sets 21:57:06 0° 33° (NNE) 3,393 7.8 -15.8°
